Location: Bishop's University Astronomical Observatory
(45.3661°N, 71.8475°W)
Time: 09:15:04
(UTC-04:00)

CZ-4C R/B - Visible Passes

Search period start: 25 August 2016 00:00
Search period end: 04 September 2016 00:00
Orbit: 737 x 1265 km, 63.4° (Epoch: 24 August)

Date Brightness Start Highest point End Pass type
(mag) Time Alt. Az. Time Alt. Az. Time Alt. Az.
25 Aug 2.7 02:28:47 51° E 02:28:47 51° E 02:34:00 10° NE visible
25 Aug 3.3 04:13:58 21° W 04:17:00 34° NW 04:22:42 10° NNE visible
26 Aug 4.4 01:16:10 15° E 01:16:10 15° E 01:17:53 10° ENE visible
26 Aug 2.1 03:01:20 72° WNW 03:01:38 74° NW 03:07:46 10° NE visible
26 Aug 4.0 04:46:50 10° WNW 04:51:19 23° NNW 04:56:16 10° NNE visible
27 Aug 3.5 01:48:41 34° ENE 01:48:41 34° ENE 01:52:30 10° NE visible
27 Aug 3.1 03:33:52 33° WNW 03:35:29 39° NW 03:41:19 10° NNE visible
27 Aug 4.4 05:22:03 10° NW 05:25:55 17° NNW 05:30:06 10° NNE visible
28 Aug 2.5 02:21:12 64° NNE 02:21:12 64° NNE 02:26:22 10° NE visible
28 Aug 3.9 04:06:22 16° WNW 04:09:43 25° NNW 04:14:52 10° NNE visible
29 Aug 4.1 01:08:30 22° ENE 01:08:30 22° ENE 01:10:57 10° NE visible
29 Aug 2.8 02:53:41 45° NW 02:53:58 46° NW 02:59:57 10° NNE visible
29 Aug 4.4 04:40:14 10° WNW 04:44:14 18° NNW 04:48:35 10° NNE visible
30 Aug 3.3 01:40:57 41° NE 01:40:57 41° NE 01:44:57 10° NE visible
30 Aug 3.7 03:26:08 23° WNW 03:28:07 28° NNW 03:33:29 10° NNE visible
30 Aug 4.6 05:15:22 10° NW 05:19:00 16° N 05:22:53 10° NNE visible
31 Aug 4.5 00:28:13 15° ENE 00:28:13 15° ENE 00:29:21 10° NE visible
31 Aug 3.0 02:13:24 49° NNW 02:13:24 49° NNW 02:18:34 10° NNE visible
31 Aug 4.4 03:58:34 11° WNW 04:02:35 19° NNW 04:07:08 10° NNE visible
01 Sep 3.9 01:00:38 28° NE 01:00:38 28° NE 01:03:29 10° NE visible
01 Sep 3.5 02:45:49 30° NW 02:46:33 31° NNW 02:52:05 10° NNE visible
01 Sep 4.6 04:33:37 10° NW 04:37:17 16° N 04:41:15 10° NNE visible
02 Sep 3.4 01:33:02 41° NNE 01:33:02 41° NNE 01:37:11 10° NE visible
02 Sep 4.2 03:18:13 16° NW 03:20:56 21° NNW 03:25:42 10° NNE visible
02 Sep 4.8 05:08:19 10° NNW 05:12:07 16° N 05:16:09 10° NE visible
03 Sep 4.3 00:20:14 19° NE 00:20:14 19° NE 00:22:01 10° NE visible
03 Sep 3.5 02:05:24 35° NNW 02:05:24 35° NNW 02:10:43 10° NNE visible
03 Sep 4.6 03:51:49 10° NW 03:55:36 17° N 03:59:39 10° NNE visible
03 Sep 4.8 05:42:21 10° NNW 05:46:51 19° NNE 05:51:45 10° ENE visible
